This is the latest recevied weather packets stored in our database for station/object W3EJE-13. If no packets are shown the sender has not sent any weather packets the latest 10 day(s).
| Time | Temp. | Humidity | Pressure | Rain* | Wind** | Luminosity | Snow |
|---|---|---|---|---|---|---|---|
| 1777858178 | 6.11° C | 73% | 1016.2 hPa | 0 mm | - | 0 W/m² | - |
| 1777857877 | 6.67° C | 74% | 1015.9 hPa | 0 mm | - | 0 W/m² | - |
| 1777857574 | 6.67° C | 74% | 1015.9 hPa | 0 mm | - | 0 W/m² | - |
| 1777857271 | 6.67° C | 73% | 1016.2 hPa | 0 mm | - | 0 W/m² | - |
| 1777856966 | 7.22° C | 69% | 1016 hPa | 0 mm | - | 0 W/m² | - |
| 1777856663 | 7.22° C | 67% | 1016.1 hPa | 0 mm | - | 0 W/m² | - |
| 1777856359 | 7.78° C | 67% | 1016 hPa | 0 mm | - | 0 W/m² | - |
| 1777856056 | 7.78° C | 64% | 1016 hPa | 0 mm | - | 0 W/m² | - |
| 1777855753 | 8.33° C | 62% | 1016 hPa | 0 mm | - | 0 W/m² | - |
| 1777855451 | 8.89° C | 62% | 1015.7 hPa | 0 mm | - | 0 W/m² | - |
| 1777855148 | 8.89° C | 59% | 1016.1 hPa | 0 mm | - | 0 W/m² | - |
| 1777854844 | 10° C | 57% | 1015.6 hPa | 0 mm | - | 0 W/m² | - |
| 1777854541 | 10° C | 54% | 1015.5 hPa | 0 mm | - | 0 W/m² | - |
| 1777854238 | 10° C | 54% | 1015.9 hPa | 0 mm | - | 0 W/m² | - |
| 1777853935 | 10° C | 53% | 1015.6 hPa | 0 mm | - | 0 W/m² | - |
| 1777853633 | 10° C | 54% | 1015.7 hPa | 0 mm | - | 1 W/m² | - |
| 1777853329 | 10° C | 52% | 1015.6 hPa | 0 mm | - | 1 W/m² | - |
| 1777853026 | 10° C | 54% | 1015.6 hPa | 0 mm | - | 4 W/m² | - |
| 1777852724 | 10.56° C | 53% | 1016 hPa | 0 mm | - | 7 W/m² | - |
| 1777852421 | 10.56° C | 54% | 1015.7 hPa | 0 mm | - | 10 W/m² | - |
| 1777852118 | 10.56° C | 51% | 1015.7 hPa | 0 mm | - | 13 W/m² | - |
| 1777851816 | 11.11° C | 51% | 1015.9 hPa | 0 mm | - | 17 W/m² | - |
| 1777851514 | 10.56° C | 52% | 1015.9 hPa | 0 mm | - | 22 W/m² | - |
| 1777851209 | 11.11° C | 54% | 1015.7 hPa | 0 mm | - | 24 W/m² | - |
| 1777850906 | 11.11° C | 53% | 1015.9 hPa | 0 mm | - | 34 W/m² | - |
* Rain latest hour (hover to see other rain measurements)
** Current wind speed in m/s (hover to see current wind gust speed)